Вернуться в каталог

ONEWEB-0610

АктивенСвязьPO
NORAD 54673·PAYLOAD·🇬🇧 United Kingdom

Запущен Dec 8, 2022 с Cape Canaveral Space Force Station

Loading…

Ближайшие Пролёты (ближайшие 24 часа)

TLE

СвежийSource: CelesTrak SupGP

Эпоха: Sep 14, 2026, 07:21 UTC

1 54673C 22166AH  26257.30678659  .00003458  00000+0  83832-2 0  2570
2 54673  87.9277 226.2390 0002659  90.6947  22.1205 13.21824408    14

Отслеживайте ONEWEB-0610 в реальном времени с AllMySat

Download on the App Store